User: anonymous   Login
Location: Asarope
(8.2500°N, 4.4833°E)
Time: 13:22:47
(UTC+00:00)
Language:

Cosmos 2239 Rocket - Orbit

View from above orbital plane
View from above orbital plane
View from above satellite
View from above satellite

Ground track
Ground track

The orbit data is extracted from the following two-line orbital elements,

1 22591U 93020B   21125.92399199  .00000063  00000-0  48115-4 0  9997
2 22591  82.9308  62.6874 0025484   4.7576  59.5701 13.77457963411797
Epoch (UTC): 05 May 2021 22:10:32
Eccentricity: 0.0025484
inclination: 82.9308°
perigee height: 954 km
apogee height: 991 km
right ascension of ascending node: 62.6874°
argument of perigee: 4.7576°
revolutions per day: 13.77457963
mean anomaly at epoch: 59.5701°
orbit number at epoch: 41179

The dashed part of the orbit path shows where the satellite is in the earth's shadow,  

DLR